Regional Weather Roundup
Issued by NWS Newport/Morehead, NC

Current Version | Previous Version | Graphics & Text | Print | Product List | Glossary Off
Versions: 1 2 3 4 5 6 7 8 9 10 11 12 13 14 15 16 17 18 19 20 21 22 23 24 25 26 27 28 29 30 31 32 33 34 35 36 37 38 39 40 41 42 43 44 45 46 47 48 49 50

000
ASUS42 KMHX 192325
RWRMHX
WEATHER ROUNDUP FOR EASTERN NORTH CAROLINA
NATIONAL WEATHER SERVICE NEWPORT/MOREHEAD CITY NC
600 PM EST SUN NOV 19 2017

NOTE: "FAIR" INDICATES FEW OR NO CLOUDS BELOW 12,000 FEET
WITH NO SIGNIFICANT WEATHER AND/OR OBSTRUCTIONS TO VISIBILITY

NCZ015>017-031-032-045>047-102-103-200000-
NORTH COAST

CITY           SKY/WX    TMP DP  RH WIND       PRES   REMARKS
EDENTON        CLEAR     55  34  44 NW5       29.87R
ELIZABETH CITY CLEAR     50  33  52 W8        29.84R
KITTY HAWK     CLEAR     54  38  54 CALM      29.82R
MANTEO         CLEAR     55  38  52 NW8       29.85R

$$

NCZ045>047-081-094-103-104-200000-
CENTRAL COAST

CITY           SKY/WX    TMP DP  RH WIND       PRES   REMARKS
FRISCO         CLEAR     57  39  51 NW8       29.83R

$$

NCZ095-097-098-100-101-200000-
SOUTHERN COAST

CITY           SKY/WX    TMP DP  RH WIND       PRES   REMARKS
BEAUFORT       CLEAR     56  38  50 NW13      29.87R
CEDAR ISLAND   NOT AVBL
JACKSONVILLE   NOT AVBL
PINEY ISLAND   NOT AVBL
WILMINGTON     CLEAR     53  34  48 NW8       29.89R


$$

NCZ011>013-027>030-043-044-078>080-089-090>093-098-200000-
COASTAL PLAIN

CITY           SKY/WX    TMP DP  RH WIND       PRES   REMARKS
AHOSKIE        CLEAR     51  29  43 N3        29.88R
CLINTON        CLEAR     54  32  43 CALM      29.91R
ELIZABETHTOWN  NOT AVBL
GOLDSBORO      CLEAR     54  31  40 W10       29.88R
GREENVILLE     CLEAR     52  30  43 NW5       29.91R
HAVELOCK       CLEAR     55  34  45 NW12      29.98R
KENANSVILLE    CLEAR     54  30  40 NW7       29.90R
KINSTON        CLEAR     52  32  46 NW3       29.89R
NEW BERN       CLEAR     53  32  44 NW9       29.88R
RICHLANDS      CLEAR     54  32  43 W3        29.89R
ROCKY MOUNT    CLEAR     52  28  39 NW9       29.90R
WASHINGTON     CLEAR     53  32  45 NW6       29.88R
WHITEVILLE     CLEAR     54  33  45 CALM      29.91R

$$

AMZ130-135-150-152-154-156-158-170-250-252-270-ANZ085-086-088-633-658-670-200000-
MARINE OBSERVATIONS

STATION/POSITION TIME  TEMP    WIND        PRES    WAVE   SWELL
                       AIR SEA DIR/SP/G            HT/PER HT/PER
                 (UTC) (F)     (DEG/KT/KT) (MB)    (FT/S) (FT/S)
CHESAPEAKE LIGHT NOT AVBL
64 E VA BEACH    2250   56 61  320/ 17/ 21 1009.0    7/ 7   3/ 9
DUCK             2300   56 61  300/  9/ 11 1009.6
2 E DUCK         2300      62                N/A     4/ 6
OREGON INLET     2300   55 58  280/  8/ 12 1010.0
13E OREGON INLT  2248      63                N/A     5/ 8   5/ 8
HATTERAS CG      2300   59 61  330/ 18/ 20 1010.3
DIAMOND BUOY     2310   60 65  330/ 16/ 21 1010.5
CAPE LOOKOUT     2300          310/ 13/ 17 1011.6
BEAUFORT LAB     2300   57 61  320/  6/ 10 1011.4
30 SE NEW RVR IN 2308   62 69  330/ 16/ 23 1011.5
30 SE NEW RVR IN 2300      69                N/A     7/ 8
27 SE WRIGHTSVLE 2208   63 68  320/ 17/ 27 1010.0
5 SE WRIGHTSVLE  2308   61 64  330/ 12/ 19 1011.5
225 S CAPE HAT   2250   71 77  300/ 17/ 21 1008.7   10/ 9   7/ 9
41 SE CHARLESTON 2310   65 74  320/ 17/ 25 1012.6

$$




USA.gov is the U.S. government's official web portal to all federal, state and local government web resources and services.